Location: Bakov nad Jizerou
(50.4784°N, 14.9394°E)
Time: 16:17:09
(UTC+00:00)

Cosmos 2322 - Pass Details

Date: 23 October 2021
Orbit: 841 x 854 km, 71.0° (Epoch: 04 December)

Event Time Altitude Azimuth Distance (km) Brightness Sun altitude
Exits shadow 00:36:46 10° 3° (N) 2,515 6.6 -44.7°
Reaches altitude 10° 00:37:17 10° 8° (N) 2,491 6.6 -44.6°
Maximum altitude 00:37:47 10° 13° (NNE) 2,483 6.6 -44.6°
Drops below altitude 10° 00:38:17 10° 18° (NNE) 2,490 6.7 -44.5°
Sets 00:43:54 0° 63° (ENE) 3,420 7.6 -43.9°
